This is the latest recevied weather packets stored in our database for station/object DB0OHA-10. If no packets are shown the sender has not sent any weather packets the latest 1 day(s).
| Time | Temp. | Humidity | Pressure | Rain* | Wind** | Luminosity | Snow |
|---|---|---|---|---|---|---|---|
| 1777977912 | 17.78° C | 7% | 1008.1 hPa | 0 mm | 0.45 m/s, 287° | 650 W/m² | - |
| 1777977012 | 17.22° C | 1% | 1008.3 hPa | 0 mm | 0.45 m/s, 38° | 606 W/m² | - |
| 1777976112 | 16.67° C | 1% | 1008.6 hPa | 0 mm | 0 m/s | 517 W/m² | - |
| 1777975212 | 16.11° C | 1% | 1008.7 hPa | 0 mm | 0 m/s | 374 W/m² | - |
| 1777974312 | 15.56° C | 1% | 1008.8 hPa | 0 mm | 0 m/s | 258 W/m² | - |
| 1777973412 | 15° C | 1% | 1008.7 hPa | 0 mm | 0 m/s | 281 W/m² | - |
| 1777972518 | 14.44° C | 1% | 1008.6 hPa | 0 mm | 0 m/s | 315 W/m² | - |
| 1777972512 | 14.44° C | 1% | 1008.6 hPa | 0 mm | 0 m/s | 315 W/m² | - |
| 1777971612 | 14.44° C | 1% | 1008.8 hPa | 0 mm | 0 m/s | 278 W/m² | - |
| 1777970712 | 14.44° C | 1% | 1008.9 hPa | 0 mm | 0 m/s | 236 W/m² | - |
| 1777969812 | 13.89° C | 1% | 1008.9 hPa | 0 mm | 0 m/s | 218 W/m² | - |
| 1777968912 | 13.89° C | 1% | 1008.9 hPa | 0 mm | 0 m/s | 192 W/m² | - |
| 1777968012 | 13.89° C | 1% | 1009 hPa | 0 mm | 0 m/s | 192 W/m² | - |
| 1777967112 | 13.89° C | 1% | 1008.8 hPa | 0 mm | 0 m/s | 135 W/m² | - |
| 1777966212 | 13.33° C | 1% | 1009 hPa | 0 mm | 0 m/s | 95 W/m² | - |
| 1777965322 | 13.33° C | 1% | 1008.9 hPa | 0 mm | 0 m/s | 121 W/m² | - |
| 1777965312 | 13.33° C | 1% | 1008.9 hPa | 0 mm | 0 m/s | 121 W/m² | - |
| 1777964419 | 12.78° C | 1% | 1008.9 hPa | 0 mm | 0 m/s | 107 W/m² | - |
| 1777964412 | 12.78° C | 1% | 1008.9 hPa | 0 mm | 0 m/s | 107 W/m² | - |
| 1777963519 | 12.78° C | 1% | 1009.1 hPa | 0 mm | 0 m/s | 90 W/m² | - |
| 1777963512 | 12.78° C | 1% | 1009.1 hPa | 0 mm | 0 m/s | 90 W/m² | - |
| 1777962612 | 12.78° C | 1% | 1009.3 hPa | 0 mm | 0 m/s | 74 W/m² | - |
| 1777961722 | 12.22° C | 1% | 1009.3 hPa | 0 mm | 0 m/s | 62 W/m² | - |
| 1777961712 | 12.22° C | 1% | 1009.3 hPa | 0 mm | 0 m/s | 62 W/m² | - |
| 1777960812 | 12.22° C | 1% | 1009.3 hPa | 0 mm | 0 m/s | 40 W/m² | - |
* Rain latest hour (hover to see other rain measurements)
** Current wind speed in m/s (hover to see current wind gust speed)